Погода в Эрланне

Норвегия     63°41′26″N   9°39′55″E
темп.,
°C
ветер,
м/с
пор.,
м/с
влажн.,
%
обл.,
%
осадки,
мм/ч
давл.,
гПа
погр.,
м
14 мая, пт
пт1423:00+7ссв3493100 0.0 1013140
02:00+7ссв3393100 0.0 101294
05:00+7св3393100 0.0 101092
08:00+8всв1291100 0.0 100998
11:00+9всв128672 0.0 1009235
14:00+10ссз118498 0.0 1008141
17:00+10с348833 0.0 1007164
20:00+9с2393100 0.0 1006118
15 мая, сб
сб1523:00+8ююв1197100 0.0 100652
02:00+9вюв339171 0.0 100429
05:00+11вюв5117991 0.0 1003193
08:00+13вюв81465100 0.0 1002342
11:00+15вюв712587 0.0 1002453
14:00+15вюв6957100 0.0 1001426
17:00+15вюв585681 0.0 999489
20:00+13вюв6116666 0.0 999327
16 мая, вс
вс1623:00+10вюв6127251 0.0 999328
02:00+10вюв487445 0.0 999230
05:00+10юв497197 0.0 998265
08:00+10юв5970100 0.0 998401
11:00+10зюз3576100 0.0 999528
14:00+9ссз2394100 0.1 1000154
17:00+9зсз349490 0.1 1001211
20:00+8ссз2396100 0.3 1003154
17 мая, пн
пн1723:00+8ссв2297100 0.4 1004115
02:00+8ссв229435 0.4 100462
05:00+7св2293100 0.0 100326
08:00+9всв2283100 0.0 1002111
11:00+12вюв4770100 0.0 1001542
14:00+11всв61178100 0.8 1000500
17:00+9св1195100 2.8 99836
20:00+10юв5977100 4.4 996335
18 мая, вт
вт1823:00+9ююв478016 0.0 997147
02:00+7в22865 0.0 99712
05:00+6вюв22865 0.0 99733
08:00+9вюв24765 0.0 996235
11:00+11зюз13675 0.0 996465
14:00+11с337019 0.0 996520
17:00+10с568052 0.0 996303
20:00+8сз578997 0.0 997346